User: anonymous   Login
Location: Kapla
(46.2483°N, 15.0094°E)
Time: 03:30:22
(UTC+00:00)
Language:

Cosmos 1689 Rocket - Orbit

View from above orbital plane
View from above orbital plane
View from above satellite
View from above satellite

Ground track
Ground track

The orbit data is extracted from the following two-line orbital elements,

1 16111U 85090B   21125.45128752  .00013389  00000-0  10372-3 0  9997
2 16111  97.4805 325.4382 0010177 140.8782 219.3219 15.71921741965463
Epoch (UTC): 05 May 2021 10:49:51
Eccentricity: 0.0010177
inclination: 97.4805°
perigee height: 346 km
apogee height: 360 km
right ascension of ascending node: 325.4382°
argument of perigee: 140.8782°
revolutions per day: 15.71921741
mean anomaly at epoch: 219.3219°
orbit number at epoch: 96546

The dashed part of the orbit path shows where the satellite is in the earth's shadow,  

DLR